IV3NGF Weather Reports


Display with metric or nautical units.
time (UTC)temp
F
wind
direction
speed
MPH
gust
MPH
rain 1hr
in
rain 24hr
in
rain mn
in
humidity
%
barometer
mb
20260506211217 60 0.0 0.0 0.00 0.61 0.61 89 1011.5
20260506210219 60 0.0 0.0 0.00 0.61 0.61 89 1011.5
20260506205219 60 0.0 0.0 0.00 0.61 0.61 89 1011.6
20260506204256 60 0.0 0.0 0.00 0.61 0.61 89 1011.5
20260506203219 59 0.0 0.0 0.00 0.61 0.61 89 1011.5
20260506202217 59 0.0 1.0 0.00 0.61 0.61 89 1011.4
20260506201256 59 0.0 0.0 0.00 0.61 0.61 90 1011.4
20260506200218 59 0.0 0.0 0.00 0.61 0.61 91 1011.3
20260506195240 60 158 1.0 4.0 0.00 0.61 0.61 92 1011.1
20260506194240 60 0.0 0.0 0.00 0.61 0.61 92 1011.1
20260506193256 60 0.0 0.0 0.00 0.61 0.61 92 1011.0
20260506192240 60 158 9.0 14.0 0.00 0.61 0.61 93 1010.9
20260506191218 61 0.0 0.0 0.00 0.61 0.61 93 1010.6
20260506190245 61 0.0 0.0 0.00 0.61 0.61 93 1010.4
20260506185217 61 0.0 0.0 0.00 0.61 0.61 94 1010.2
20260506184219 61 0.0 0.0 0.00 0.61 0.61 94 1010.2
20260506183256 61 0.0 0.0 0.00 0.61 0.61 93 1010.1
20260506182225 61 0.0 0.0 0.00 0.61 0.61 94 1010.1
20260506181316 61 0.0 0.0 0.00 0.61 0.61 93 1010.2
20260506180220 61 0.0 0.0 0.01 0.61 0.61 93 1010.1
20260506175219 62 0.0 0.0 0.01 0.61 0.61 92 1010.1
20260506174318 62 0.0 0.0 0.10 0.61 0.61 92 1010.0
20260506173219 62 0.0 0.0 0.11 0.61 0.61 92 1010.1
20260506172256 62 0.0 0.0 0.11 0.61 0.61 92 1010.1
20260506171254 62 0.0 0.0 0.11 0.61 0.61 91 1009.9
20260506170217 62 0.0 0.0 0.10 0.61 0.61 90 1009.7
20260506165254 63 203 2.0 5.0 0.10 0.61 0.61 88 1009.8
20260506164218 64 248 8.0 12.0 0.01 0.51 0.51 86 1009.8
20260506163218 65 0.0 0.0 0.00 0.50 0.50 85 1008.9
20260506162215 65 0.0 0.0 0.00 0.50 0.50 85 1009.4
20260506161216 65 0.0 0.0 0.00 0.50 0.50 85 1009.6
20260506160254 65 0.0 0.0 0.00 0.50 0.50 85 1009.6
20260506155236 65 0.0 0.0 0.00 0.51 0.50 85 1009.7
20260506154218 65 0.0 0.0 0.00 0.51 0.50 86 1009.8
20260506153216 64 0.0 0.0 0.00 0.51 0.50 87 1009.9
20260506152217 64 0.0 0.0 0.00 0.51 0.50 88 1010.1
20260506151216 64 0.0 0.0 0.00 0.52 0.50 88 1010.2
20260506150216 64 0.0 0.0 0.00 0.53 0.50 88 1010.4
20260506145218 64 0.0 0.0 0.01 0.54 0.50 88 1010.4
20260506144218 64 0.0 0.0 0.01 0.54 0.50 89 1010.6
20260506143223 63 0.0 0.0 0.01 0.54 0.50 90 1010.6
20260506142216 63 0.0 0.0 0.01 0.55 0.50 92 1010.6
20260506141218 62 0.0 0.0 0.01 0.56 0.50 92 1010.7
20260506140216 62 0.0 0.0 0.01 0.56 0.50 92 1010.7
20260506135223 62 0.0 0.0 0.00 0.55 0.50 92 1010.9
20260506134223 62 0.0 0.0 0.00 0.55 0.50 91 1010.8
20260506133254 62 0.0 0.0 0.00 0.56 0.50 91 1011.0
20260506132218 62 0.0 0.0 0.00 0.56 0.50 91 1011.2
20260506131217 62 0.0 0.0 0.00 0.56 0.50 91 1011.2
20260506130218 61 180 1.0 3.0 0.00 0.56 0.50 91 1011.4
20260506125216 61 0.0 0.0 0.00 0.56 0.50 92 1011.4
20260506124238 61 0.0 3.0 0.01 0.56 0.50 92 1011.4
20260506123254 61 158 7.0 11.0 0.02 0.56 0.50 92 1011.4
20260506122249 61 158 7.0 13.0 0.02 0.56 0.50 93 1011.4
20260506121218 61 158 1.0 6.0 0.02 0.56 0.50 93 1011.3
20260506120218 61 158 1.0 4.0 0.02 0.56 0.50 93 1011.4
20260506115218 60 0.0 0.0 0.02 0.56 0.50 93 1011.4
20260506114216 60 158 2.0 7.0 0.02 0.56 0.49 93 1011.3
20260506113254 60 158 4.0 8.0 0.01 0.55 0.48 93 1011.4
20260506112218 60 0.0 2.0 0.01 0.57 0.48 93 1011.5
20260506111218 60 158 3.0 7.0 0.01 0.57 0.48 93 1011.5
20260506110249 60 0.0 0.0 0.01 0.58 0.48 93 1011.6
20260506105218 60 0.0 0.0 0.01 0.59 0.48 93 1011.6
20260506104255 60 135 1.0 5.0 0.01 0.59 0.47 94 1011.7
20260506103216 60 135 4.0 10.0 0.01 0.61 0.47 94 1011.7
20260506102218 59 135 1.0 3.0 0.01 0.61 0.47 94 1011.7
20260506101216 59 135 4.0 8.0 0.01 0.61 0.47 93 1011.9
20260506100218 59 135 5.0 9.0 0.01 0.61 0.47 93 1012.0
20260506095315 59 135 5.0 8.0 0.01 0.61 0.47 94 1012.0
20260506094218 60 135 4.0 11.0 0.01 0.60 0.46 94 1012.0
20260506093218 60 135 5.0 9.0 0.02 0.60 0.46 94 1012.0
20260506092216 60 0.0 2.0 0.02 0.60 0.46 95 1011.9
20260506091251 60 113 2.0 7.0 0.04 0.60 0.46 95 1011.8
20260506090216 60 0.0 0.0 0.06 0.60 0.46 95 1011.9
20260506085244 60 0.0 0.0 0.07 0.60 0.46 95 1011.8
20260506084255 60 0.0 0.0 0.09 0.59 0.46 95 1011.8
20260506083218 60 0.0 4.0 0.09 0.58 0.45 95 1011.8
20260506082218 59 0.0 3.0 0.09 0.57 0.44 95 1011.8
20260506081216 59 0.0 0.0 0.08 0.56 0.43 95 1011.9
20260506080218 59 0.0 0.0 0.07 0.54 0.41 95 1011.6
20260506073256 59 0.0 0.0 0.06 0.50 0.36 95 1011.7
20260506072218 59 0.0 0.0 0.06 0.49 0.35 95 1011.7
20260506071239 59 0.0 0.0 0.06 0.48 0.35 95 1011.7
20260506070216 59 0.0 0.0 0.06 0.47 0.34 95 1011.8
20260506062236 58 0.0 0.0 0.30 0.43 0.30 94 1011.7
20260506061218 58 0.0 0.0 0.29 0.43 0.29 94 1011.6
20260506060255 58 0.0 0.0 0.28 0.41 0.28 94 1011.6
20260506051216 58 0.0 0.0 0.00 0.13 0.00 94 1011.2
20260506050238 58 0.0 0.0 0.00 0.13 0.00 94 1011.3
20260506044216 57 0.0 0.0 0.00 0.13 0.00 93 1011.4
20260506043255 57 0.0 0.0 0.00 0.13 0.00 93 1011.4
20260506042219 57 0.0 0.0 0.00 0.13 0.00 93 1011.4
20260506041219 57 0.0 0.0 0.00 0.13 0.00 92 1011.4
20260506040224 57 0.0 0.0 0.00 0.13 0.00 92 1011.3
20260506035239 57 0.0 0.0 0.00 0.13 0.00 92 1011.5
20260506034217 58 0.0 0.0 0.00 0.13 0.00 93 1011.6
20260506033216 58 0.0 0.0 0.00 0.13 0.00 93 1011.7
20260506032239 58 0.0 0.0 0.00 0.13 0.00 92 1011.7
20260506031218 58 0.0 0.0 0.00 0.13 0.00 92 1011.9
20260506030250 58 0.0 0.0 0.00 0.13 0.00 92 1011.9
20260506025218 58 0.0 0.0 0.00 0.13 0.00 92 1012.0
20260506024218 58 0.0 0.0 0.00 0.13 0.00 92 1012.0
20260506023217 58 0.0 0.0 0.00 0.13 0.00 92 1012.3
20260506022216 58 0.0 0.0 0.00 0.13 0.00 92 1012.3
20260506021216 58 0.0 0.0 0.00 0.13 0.00 92 1012.3
20260506020255 58 0.0 0.0 0.00 0.13 0.00 91 1012.5
20260506015259 58 0.0 0.0 0.00 0.13 0.00 91 1012.5
20260506014219 59 0.0 0.0 0.00 0.13 0.00 91 1012.5
20260506013219 59 0.0 0.0 0.00 0.13 0.00 91 1012.5
20260506012218 59 0.0 0.0 0.00 0.13 0.00 91 1012.3
20260506011217 59 0.0 0.0 0.00 0.13 0.00 91 1012.4
20260506010257 59 0.0 0.0 0.00 0.13 0.00 91 1012.3
20260506005239 58 338 2.0 9.0 0.00 0.13 0.00 91 1012.3
20260506004219 58 0.0 0.0 0.00 0.13 0.00 91 1012.3
20260506003224 59 315 5.0 7.0 0.00 0.13 0.00 90 1012.5
20260506002219 59 0.0 0.0 0.00 0.13 0.00 90 1012.3
20260506001219 59 0.0 0.0 0.00 0.13 0.00 90 1012.3
20260506000219 58 0.0 0.0 0.00 0.13 0.00 91 1012.4
20260505235217 58 0.0 0.0 0.00 0.13 0.00 91 1012.4
20260505234255 58 0.0 0.0 0.00 0.13 0.00 92 1012.6
20260505233217 58 0.0 0.0 0.00 0.13 0.00 92 1012.8
20260505232219 58 0.0 0.0 0.00 0.13 0.00 92 1013.0
20260505231315 58 0.0 0.0 0.00 0.13 0.00 92 1012.8
20260505230310 58 0.0 0.0 0.00 0.13 0.00 92 1012.9
20260505225218 58 0.0 0.0 0.00 0.13 0.00 92 1012.9
20260505224255 57 0.0 0.0 0.00 0.13 0.00 92 1013.0
20260505223219 57 0.0 1.0 0.00 0.13 0.00 93 1013.1
20260505222217 57 0.0 0.0 0.00 0.13 0.00 93 1013.1
20260505221219 57 0.0 0.0 0.00 0.13 0.00 93 1013.1
20260505220217 57 0.0 0.0 0.00 0.13 0.00 94 1013.1
20260505215216 57 0.0 0.0 0.00 0.13 0.13 94 1013.2
20260505214254 57 0.0 0.0 0.00 0.13 0.13 94 1013.4
20260505213237 57 0.0 0.0 0.00 0.13 0.13 94 1013.5
20260505212218 57 0.0 0.0 0.00 0.13 0.13 94 1013.5